Skip Page Navigation
NASA JPL Caltech
NASA Logo - Jet Propulsion Laboratory + View the NASA Portal
+ Center for Near-Earth Object Studies
JPL Home Earth Solar System Stars & Galaxies Technology
JPL Solar System Dynamics
BODIES ORBITS EPHEMERIDES TOOLS PHYSICAL DATA DISCOVERY FAQ SITE MAP
JPL Small-Body Database Browser
Search: [ help ]  
67637 (2000 SQ211)
Classification: Main-belt Asteroid          SPK-ID: 2067637
Ephemeris | Orbit Diagram | Orbital Elements | Mission Design | Physical Parameters | Discovery Circumstances | Close-Approach Data ]

[ show orbit diagram ]
Orbital Elements at Epoch 2459200.5 (2020-Dec-17.0) TDB
Reference: JPL 25 (heliocentric ecliptic J2000)
 Element Value Uncertainty (1-sigma)   Units 
e .1959465744065242 4.1568e-08  
a 2.301452832279944 1.311e-08 au
q 1.850491033636496 9.9734e-08 au
i 7.399665187972036 3.9737e-06 deg
node 102.4480895635485 3.9793e-05 deg
peri 197.1602086902835 4.314e-05 deg
M 339.0397214762664 1.9377e-05 deg
tp 2459274.749937645489
(2021-Mar-01.24993765)
6.883e-05 TDB
period 1275.268242361826
3.49
1.0897e-05
2.983e-08
d
yr
n .2822935505186515 2.4121e-09 deg/d
Q 2.752414630923392 1.5679e-08 au
  Orbit Determination Parameters
   # obs. used (total)      701  
   data-arc span      9302 days (25.47 yr)  
   first obs. used      1994-12-02  
   last obs. used      2020-05-21  
   planetary ephem.      DE441  
   SB-pert. ephem.      SB441-N16  
   condition code      0  
   norm. resid. RMS      .60712  
   source      ORB  
   producer      Otto Matic  
   solution date      2021-Apr-13 12:31:20  

Additional Information
 Earth MOID = .834156 au 
 Jupiter MOID = 2.46354 au 
 T_jup = 3.554 
[ show covariance matrix ]

Ephemeris | Orbit Diagram | Orbital Elements | Mission Design | Physical Parameters | Discovery Circumstances | Close-Approach Data ]

Physical Parameter Table
Parameter Symbol Value Units Sigma Reference Notes
absolute magnitude H 15.80   n/a E2021B10  

67637 (2000 SQ211)          Discovered 2000-Sep-25 by LINEAR at Socorro
Reference: 20030910/Numbers.arcLast Updated: 2004-04-19

[ show close-approach data ]
Alternate Designations
 2000 SQ211 = 2002 AC115 
Ephemeris | Orbit Diagram | Orbital Elements | Mission Design | Physical Parameters | Discovery Circumstances | Close-Approach Data ]
ABOUT SSD CREDITS/AWARDS PRIVACY/COPYRIGHT GLOSSARY LINKS
FirstGov 2021-Jun-23 20:18 UT
(server date/time)  
NASA Home Page
Site Manager:   Ryan S. Park
Webmaster  Alan B. Chamberlin